Find Starlink 35469

NORAD ID: 65863 Int'l Des: 2025-223 Owner: SPXS Country: US Constellation: starlink operational
LEOCIRCULAR

リアルタイム位置

3D地球を読み込み中...

Starlink 35469について

説明を読み込み中...

次回通過

Passes for default location (London). Set your location on the main map for personalized predictions.

高度履歴

Loading altitude history...

軌道要素

1 65863U 25223K 26105.73487774 .00008373 00000-0 29442-3 0 9998
2 65863 53.1565 122.3721 0000909 67.1994 292.9103 15.30209670 29872
Epoch: Apr 15, 2026 • Age: 14 hours

現在のステータス

高度 475.3 km
速度 7.63 km/s
衛星直下点 4.56°N, 162.03°E
打ち上げ日 Oct 3, 2025
運用期間 0.5 years
タイプ internet

技術仕様

分類 Payload
質量 575.00 kg
乾燥質量 530.00 kg
総質量 575.00 kg
長さ 0.30 m
直径 4.10 m
スパン 29.00 m
形状 Box + pan
製造者 SPXS
バスタイプ Starlink V2MO
フェーズステータス In Orbit
所有者/国 SPXS/US

Most Searched